OneWeb SL0567

operational
NORAD ID: 55147 Int'l Des: 2023-004 Owner: ONEWEBN Country: UK Constellation: oneweb
LEOCIRCULARPOLARONEWEB_TYPE

OneWeb SL0567について

説明を読み込み中...

リアルタイム位置

3D地球を読み込み中...

次回通過

高度履歴

Altitude vs Time

uPlot chart will show altitude changes over time

軌道要素

1 55147U 23004H 25258.61624560 .00000016 00000-0 66061-5 0 9994
2 55147 87.9183 30.0151 0001676 111.6601 248.4710 13.18685872133514
Epoch: Sep 15, 2025 • Age: 11 hours

現在のステータス

高度 1193.2 km
速度 7.26 km/s
衛星直下点 -0.52°S, 8.94°E
打ち上げ日 Jan 10, 2023
運用期間 2.6 years
タイプ internet

技術仕様

分類 Payload
質量 148.00 kg
乾燥質量 140.00 kg
総質量 148.00 kg
長さ 1.30 m
直径 1.00 m
スパン 5.00 m
形状 Trapezoid+2 pan
製造者 ONEWUS
バスタイプ ARROW
フェーズステータス In Orbit
所有者/国 ONEWEBN/UK

大規模コンステレーション

Loading constellations...